Date,Installs,Update checks
2021-05-11,1,1
2021-05-12,1,0
2021-05-13,2,0
2021-05-14,1,0
2021-05-15,1,3
2021-05-16,0,3
2021-05-17,3,3
2021-05-18,2,5
2021-05-19,1,3
2021-05-20,2,7
2021-05-21,3,4
2021-05-22,4,9
2021-05-23,1,10
2021-05-24,2,10
2021-05-25,3,9
2021-05-26,0,10
2021-05-27,0,14
2021-05-28,0,13
2021-05-29,2,15
2021-05-30,3,11
2021-05-31,0,16
2021-06-01,0,14
2021-06-02,3,13
2021-06-03,1,15
2021-06-04,2,18
2021-06-05,0,4
2021-06-06,1,18
2021-06-07,1,11
2021-06-08,0,18
2021-06-09,1,19
2021-06-10,1,18
2021-06-11,3,18
2021-06-12,5,22
2021-06-13,3,16
2021-06-14,2,22
2021-06-15,2,24
2021-06-16,2,21
2021-06-17,1,25
2021-06-18,1,31
2021-06-19,2,27
2021-06-20,1,25
2021-06-21,0,30
2021-06-22,2,30
2021-06-23,1,29
2021-06-24,2,24
2021-06-25,4,27
2021-06-26,1,27
2021-06-27,3,35
2021-06-28,2,21
2021-06-29,1,33
2021-06-30,2,25
2021-07-01,0,31
2021-07-02,0,33
2021-07-03,1,32
2021-07-04,2,34
2021-07-05,2,32
2021-07-06,0,35
2021-07-07,1,40
2021-07-08,0,34
2021-07-09,0,29
2021-07-10,0,34
2021-07-11,3,33
2021-07-12,2,27
2021-07-13,1,34
2021-07-14,0,32
2021-07-15,0,34
2021-07-16,0,34
2021-07-17,1,27
2021-07-18,0,3
2021-07-19,0,6
2021-07-20,2,37
2021-07-21,0,27
2021-07-22,3,35
2021-07-23,0,32
2021-07-24,0,31
2021-07-25,1,35
2021-07-26,1,37
2021-07-27,0,33
2021-07-28,3,33
2021-07-29,1,35
2021-07-30,1,37
2021-07-31,0,35
2021-08-01,1,39
2021-08-02,5,43
2021-08-03,0,33
2021-08-04,1,36
2021-08-05,1,45
2021-08-06,3,45
2021-08-07,3,45
2021-08-08,2,41
2021-08-09,0,39
2021-08-10,2,41
2021-08-11,1,44
2021-08-12,1,36
2021-08-13,2,49
2021-08-14,3,47
2021-08-15,2,50
2021-08-16,1,45
2021-08-17,2,49
2021-08-18,0,45
2021-08-19,0,44
2021-08-20,2,43
2021-08-21,0,55
2021-08-22,0,48
2021-08-23,0,43
2021-08-24,1,52
2021-08-25,2,54
2021-08-26,3,50
2021-08-27,1,49
2021-08-28,2,39
2021-08-29,3,53
2021-08-30,2,50
2021-08-31,3,57
2021-09-01,1,60
2021-09-02,1,46
2021-09-03,2,51
2021-09-04,2,52
2021-09-05,0,40
2021-09-06,2,55
2021-09-07,1,45
2021-09-08,2,57
2021-09-09,1,53
2021-09-10,0,60
2021-09-11,2,51
2021-09-12,3,51
2021-09-13,1,57
2021-09-14,2,50
2021-09-15,1,48
2021-09-16,0,55
2021-09-17,0,53
2021-09-18,0,58
2021-09-19,3,56
2021-09-20,4,53
2021-09-21,2,66
2021-09-22,0,48
2021-09-23,3,60
2021-09-24,2,70
2021-09-25,1,65
2021-09-26,2,60
2021-09-27,1,66
2021-09-28,3,55
2021-09-29,1,62
2021-09-30,1,69
2021-10-01,3,64
2021-10-02,4,63
2021-10-03,4,54
2021-10-04,5,59
2021-10-05,2,65
2021-10-06,3,76
2021-10-07,0,74
2021-10-08,2,74
2021-10-09,1,75
2021-10-10,1,72
2021-10-11,1,60
2021-10-12,1,71
2021-10-13,1,69
2021-10-14,1,75
2021-10-15,2,78
2021-10-16,1,62
2021-10-17,1,77
2021-10-18,0,69
2021-10-19,2,73
2021-10-20,0,75
2021-10-21,3,70
2021-10-22,1,76
2021-10-23,0,77
2021-10-24,1,69
2021-10-25,1,73
2021-10-26,0,80
2021-10-27,2,82
2021-10-28,1,74
2021-10-29,1,73
2021-10-30,0,73
2021-10-31,2,74
2021-11-01,1,81
2021-11-02,0,75
2021-11-03,0,80
2021-11-04,1,73
2021-11-05,3,81
2021-11-06,2,80
2021-11-07,1,67
2021-11-08,1,86
2021-11-09,0,79
2021-11-10,2,84
2021-11-11,1,79
2021-11-12,1,72
2021-11-13,3,70
2021-11-14,2,79
2021-11-15,1,79
2021-11-16,2,84
2021-11-17,0,81
2021-11-18,3,77
2021-11-19,4,75
2021-11-20,2,67
2021-11-21,1,81
2021-11-22,1,84
2021-11-23,2,83
2021-11-24,3,77
2021-11-25,1,86
2021-11-26,2,79
2021-11-27,2,78
2021-11-28,5,84
2021-11-29,1,93
2021-11-30,6,92
2021-12-01,1,82
2021-12-02,2,91
2021-12-03,3,96
2021-12-04,3,90
2021-12-05,3,92
2021-12-06,4,89
2021-12-07,0,108
2021-12-08,1,111
2021-12-09,1,97
2021-12-10,2,95
2021-12-11,3,95
2021-12-12,0,93
2021-12-13,1,102
2021-12-14,2,103
2021-12-15,5,107
2021-12-16,1,92
2021-12-17,2,95
2021-12-18,3,85
2021-12-19,0,91
2021-12-20,2,106
2021-12-21,1,103
2021-12-22,4,101
2021-12-23,1,104
2021-12-24,5,103
2021-12-25,1,95
2021-12-26,0,91
2021-12-27,0,102
2021-12-28,4,97
2021-12-29,1,86
2021-12-30,0,101
2021-12-31,1,91
2022-01-01,2,95
2022-01-02,3,86
2022-01-03,1,99
2022-01-04,3,108
2022-01-05,3,101
2022-01-06,2,109
2022-01-07,1,110
2022-01-08,3,111
2022-01-09,5,6
2022-01-10,3,0
2022-01-11,1,117
2022-01-12,1,116
2022-01-13,1,109
2022-01-14,1,116
2022-01-15,2,100
2022-01-16,1,102
2022-01-17,2,110
2022-01-18,1,106
2022-01-19,2,101
2022-01-20,1,102
2022-01-21,2,101
2022-01-22,3,97
2022-01-23,1,101
2022-01-24,1,113
2022-01-25,1,106
2022-01-26,2,113
2022-01-27,2,106
2022-01-28,1,89
2022-01-29,0,92
2022-01-30,1,101
2022-01-31,1,88
2022-02-01,2,84
2022-02-02,2,84
2022-02-03,0,90
2022-02-04,1,92
2022-02-05,1,100
2022-02-06,2,106
2022-02-07,1,110
2022-02-08,0,108
2022-02-09,2,108
2022-02-10,0,115
2022-02-11,2,104
2022-02-12,2,106
2022-02-13,2,104
2022-02-14,0,111
2022-02-15,0,115
2022-02-16,1,108
2022-02-17,2,105
2022-02-18,1,109
2022-02-19,2,99
2022-02-20,0,106
2022-02-21,0,110
2022-02-22,1,118
2022-02-23,0,120
2022-02-24,0,109
2022-02-25,1,115
2022-02-26,0,109
2022-02-27,0,91
2022-02-28,1,121
2022-03-01,1,103
2022-03-02,3,109
2022-03-03,0,104
2022-03-04,0,107
2022-03-05,1,104
2022-03-06,1,88
2022-03-07,0,108
2022-03-08,2,95
2022-03-09,1,113
2022-03-10,0,101
2022-03-11,0,107
2022-03-12,1,95
2022-03-13,1,103
2022-03-14,3,106
2022-03-15,2,109
2022-03-16,3,100
2022-03-17,2,91
2022-03-18,3,116
2022-03-19,2,99
2022-03-20,2,103
2022-03-21,2,101
2022-03-22,0,111
2022-03-23,2,112
2022-03-24,1,96
2022-03-25,0,92
2022-03-26,2,88
2022-03-27,1,96
2022-03-28,3,106
2022-03-29,3,112
2022-03-30,0,111
2022-03-31,2,118
2022-04-01,0,96
2022-04-02,1,112
2022-04-03,1,92
2022-04-04,0,102
2022-04-05,1,85
2022-04-06,1,109
2022-04-07,1,101
2022-04-08,2,102
2022-04-09,4,102
2022-04-10,0,96
2022-04-11,3,97
2022-04-12,2,102
2022-04-13,1,94
2022-04-14,5,112
2022-04-15,2,113
2022-04-16,0,97
2022-04-17,1,101
2022-04-18,1,100
2022-04-19,2,99
2022-04-20,2,114
2022-04-21,1,97
2022-04-22,3,101
2022-04-23,1,102
2022-04-24,1,99
2022-04-25,0,106
2022-04-26,2,103
2022-04-27,3,96
2022-04-28,1,98
2022-04-29,1,105
2022-04-30,2,96
2022-05-01,0,96
2022-05-02,1,99
2022-05-03,1,99
2022-05-04,2,92
2022-05-05,1,113
2022-05-06,0,92
2022-05-07,1,95
2022-05-08,0,97
2022-05-09,2,104
2022-05-10,0,112
2022-05-11,3,117
2022-05-12,1,108
2022-05-13,1,111
2022-05-14,2,99
2022-05-15,0,101
2022-05-16,1,98
2022-05-17,1,107
2022-05-18,1,100
2022-05-19,1,99
2022-05-20,1,111
2022-05-21,0,101
2022-05-22,2,94
2022-05-23,2,107
2022-05-24,1,103
2022-05-25,0,110
2022-05-26,0,108
2022-05-27,1,111
2022-05-28,1,103
2022-05-29,1,108
2022-05-30,2,109
2022-05-31,4,95
2022-06-01,1,104
2022-06-02,3,101
2022-06-03,0,93
2022-06-04,0,96
2022-06-05,2,98
2022-06-06,2,112
2022-06-07,0,100
2022-06-08,1,113
2022-06-09,1,110
2022-06-10,0,103
2022-06-11,0,101
2022-06-12,1,106
2022-06-13,2,108
2022-06-14,3,116
2022-06-15,1,100
2022-06-16,1,114
2022-06-17,0,103
2022-06-18,1,105
2022-06-19,1,97
2022-06-20,3,120
2022-06-21,2,117
2022-06-22,0,110
2022-06-23,2,110
2022-06-24,3,106
2022-06-25,0,105
2022-06-26,1,103
2022-06-27,3,89
2022-06-28,2,113
2022-06-29,3,117
2022-06-30,0,113
2022-07-01,1,112
2022-07-02,1,99
2022-07-03,5,105
2022-07-04,1,125
2022-07-05,0,118
2022-07-06,4,106
2022-07-07,4,126
2022-07-08,2,105
2022-07-09,0,108
2022-07-10,2,109
2022-07-11,4,117
2022-07-12,1,106
2022-07-13,1,110
2022-07-14,5,123
2022-07-15,2,105
2022-07-16,1,127
2022-07-17,1,105
2022-07-18,0,110
2022-07-19,2,106
2022-07-20,1,110
2022-07-21,1,111
2022-07-22,0,106
2022-07-23,0,86
2022-07-24,3,63
2022-07-25,2,92
2022-07-26,1,102
2022-07-27,4,100
2022-07-28,0,97
2022-07-29,2,88
2022-07-30,4,98
2022-07-31,0,91
2022-08-01,3,99
2022-08-02,2,112
2022-08-03,0,109
2022-08-04,2,123
2022-08-05,2,101
2022-08-06,2,95
2022-08-07,1,104
2022-08-08,2,104
2022-08-09,0,108
2022-08-10,0,117
2022-08-11,3,110
2022-08-12,1,111
2022-08-13,0,96
2022-08-14,2,97
2022-08-15,0,89
2022-08-16,0,111
2022-08-17,1,98
2022-08-18,3,97
2022-08-19,2,116
2022-08-20,0,107
2022-08-21,1,93
2022-08-22,1,107
2022-08-23,1,101
2022-08-24,3,105
2022-08-25,1,100
2022-08-26,1,102
2022-08-27,1,98
2022-08-28,0,100
2022-08-29,1,108
2022-08-30,1,109
2022-08-31,1,98
2022-09-01,2,97
2022-09-02,4,102
2022-09-03,1,97
2022-09-04,1,84
2022-09-05,1,104
2022-09-06,2,101
2022-09-07,2,96
2022-09-08,0,92
2022-09-09,1,99
2022-09-10,1,93
2022-09-11,1,93
2022-09-12,0,106
2022-09-13,1,100
2022-09-14,1,105
2022-09-15,1,95
2022-09-16,2,91
2022-09-17,1,91
2022-09-18,0,95
2022-09-19,4,97
2022-09-20,1,101
2022-09-21,0,102
2022-09-22,2,95
2022-09-23,1,99
2022-09-24,2,97
2022-09-25,3,96
2022-09-26,0,96
2022-09-27,1,99
2022-09-28,0,112
2022-09-29,2,100
2022-09-30,1,90
2022-10-01,0,83
2022-10-02,4,91
2022-10-03,2,100
2022-10-04,2,78
2022-10-05,3,82
2022-10-06,3,100
2022-10-07,1,95
2022-10-08,3,117
2022-10-09,1,98
2022-10-10,6,111
2022-10-11,1,123
2022-10-12,0,110
2022-10-13,2,101
2022-10-14,0,98
2022-10-15,3,107
2022-10-16,1,104
2022-10-17,2,107
2022-10-18,2,106
2022-10-19,1,108
2022-10-20,2,100
2022-10-21,1,107
2022-10-22,3,100
2022-10-23,2,87
2022-10-24,5,91
2022-10-25,1,111
2022-10-26,2,108
2022-10-27,1,109
2022-10-28,1,108
2022-10-29,1,91
2022-10-30,4,102
2022-10-31,0,107
2022-11-01,5,93
2022-11-02,2,114
2022-11-03,2,97
2022-11-04,1,117
2022-11-05,1,113
2022-11-06,2,95
2022-11-07,1,107
2022-11-08,4,104
2022-11-09,2,104
2022-11-10,1,106
2022-11-11,3,106
2022-11-12,0,104
2022-11-13,6,107
2022-11-14,1,128
2022-11-15,3,110
2022-11-16,5,96
2022-11-17,3,100
2022-11-18,3,86
2022-11-19,2,87
2022-11-20,2,100
2022-11-21,0,100
2022-11-22,6,102
2022-11-23,3,120
2022-11-24,1,111
2022-11-25,2,106
2022-11-26,2,97
2022-11-27,6,115
2022-11-28,3,111
2022-11-29,2,97
2022-11-30,3,103
2022-12-01,1,114
2022-12-02,2,99
2022-12-03,1,103
2022-12-04,1,97
2022-12-05,1,106
2022-12-06,2,112
2022-12-07,6,111
2022-12-08,3,113
2022-12-09,1,109
2022-12-10,3,101
2022-12-11,3,116
2022-12-12,3,104
2022-12-13,1,95
2022-12-14,4,90
2022-12-15,4,117
2022-12-16,4,102
2022-12-17,1,93
2022-12-18,2,90
2022-12-19,5,105
2022-12-20,4,109
2022-12-21,1,91
2022-12-22,3,102
2022-12-23,5,102
2022-12-24,3,98
2022-12-25,2,102
2022-12-26,1,105
2022-12-27,2,113
2022-12-28,5,108
2022-12-29,2,99
2022-12-30,1,94
2022-12-31,1,91
2023-01-01,0,97
2023-01-02,3,114
2023-01-03,5,120
2023-01-04,4,116
2023-01-05,1,118
2023-01-06,2,122
2023-01-07,1,102
2023-01-08,6,107
2023-01-09,1,120
2023-01-10,7,105
2023-01-11,3,112
2023-01-12,1,106
2023-01-13,1,119
2023-01-14,2,106
2023-01-15,3,98
2023-01-16,3,113
2023-01-17,5,109
2023-01-18,8,118
2023-01-19,4,106
2023-01-20,1,100
2023-01-21,4,106
2023-01-22,1,97
2023-01-23,2,100
2023-01-24,3,103
2023-01-25,5,109
2023-01-26,3,112
2023-01-27,1,107
2023-01-28,1,120
2023-01-29,1,116
2023-01-30,4,124
2023-01-31,4,124
2023-02-01,0,130
2023-02-02,1,117
2023-02-03,3,126
2023-02-04,1,110
2023-02-05,6,126
2023-02-06,1,122
2023-02-07,1,135
2023-02-08,1,123
2023-02-09,1,129
2023-02-10,4,120
2023-02-11,2,126
2023-02-12,0,120
2023-02-13,2,134
2023-02-14,1,122
2023-02-15,1,136
2023-02-16,1,121
2023-02-17,2,153
2023-02-18,4,124
2023-02-19,4,119
2023-02-20,0,146
2023-02-21,1,120
2023-02-22,1,128
2023-02-23,0,128
2023-02-24,2,119
2023-02-25,1,107
2023-02-26,4,122
2023-02-27,4,127
2023-02-28,2,135
2023-03-01,1,138
2023-03-02,1,129
2023-03-03,1,127
2023-03-04,1,118
2023-03-05,0,123
2023-03-06,0,121
2023-03-07,3,128
2023-03-08,0,131
2023-03-09,0,130
2023-03-10,2,125
2023-03-11,1,117
2023-03-12,0,116
2023-03-13,2,126
2023-03-14,0,127
2023-03-15,0,128
2023-03-16,0,117
2023-03-17,2,136
2023-03-18,3,122
2023-03-19,1,117
2023-03-20,5,143
2023-03-21,4,145
2023-03-22,4,126
2023-03-23,3,131
2023-03-24,1,134
2023-03-25,5,123
2023-03-26,1,134
2023-03-27,0,127
2023-03-28,0,137
2023-03-29,1,127
2023-03-30,0,127
2023-03-31,4,148
2023-04-01,5,127
2023-04-02,0,123
2023-04-03,1,143
2023-04-04,2,139
2023-04-05,2,122
2023-04-06,0,122
2023-04-07,2,139
2023-04-08,3,133
2023-04-09,0,135
2023-04-10,3,143
2023-04-11,3,130
2023-04-12,1,136
2023-04-13,4,126
2023-04-14,1,131
2023-04-15,0,120
2023-04-16,4,138
2023-04-17,1,138
2023-04-18,0,122
2023-04-19,1,141
2023-04-20,3,129
2023-04-21,0,141
2023-04-22,1,121
2023-04-23,4,129
2023-04-24,2,141
2023-04-25,3,128
2023-04-26,1,140
2023-04-27,6,133
2023-04-28,1,133
2023-04-29,4,129
2023-04-30,3,127
2023-05-01,0,124
2023-05-02,2,129
2023-05-03,1,121
2023-05-04,1,145
2023-05-05,0,135
2023-05-06,1,145
2023-05-07,3,130
2023-05-08,0,121
2023-05-09,3,127
2023-05-10,1,117
2023-05-11,1,141
2023-05-12,3,124
2023-05-13,4,131
2023-05-14,4,131
2023-05-15,3,131
2023-05-16,4,136
2023-05-17,2,125
2023-05-18,3,130
2023-05-19,3,129
2023-05-20,2,121
2023-05-21,1,123
2023-05-22,2,139
2023-05-23,4,119
2023-05-24,3,145
2023-05-25,0,130
2023-05-26,1,138
2023-05-27,1,136
2023-05-28,2,123
2023-05-29,2,134
2023-05-30,1,139
2023-05-31,3,135
2023-06-01,1,142
2023-06-02,4,132
2023-06-03,0,135
2023-06-04,2,126
2023-06-05,0,141
2023-06-06,1,143
2023-06-07,2,125
2023-06-08,4,159
2023-06-09,1,140
2023-06-10,4,130
2023-06-11,4,118
2023-06-12,0,148
2023-06-13,2,137
2023-06-14,2,145
2023-06-15,0,139
2023-06-16,1,144
2023-06-17,2,143
2023-06-18,3,120
2023-06-19,3,139
2023-06-20,5,142
2023-06-21,3,129
2023-06-22,3,118
2023-06-23,3,125
2023-06-24,1,126
2023-06-25,5,129
2023-06-26,5,140
2023-06-27,1,138
2023-06-28,2,140
2023-06-29,1,141
2023-06-30,3,145
2023-07-01,3,127
2023-07-02,1,120
2023-07-03,3,136
2023-07-04,4,139
2023-07-05,5,137
2023-07-06,3,144
2023-07-07,0,139
2023-07-08,3,125
2023-07-09,3,135
2023-07-10,1,137
2023-07-11,3,142
2023-07-12,1,129
2023-07-13,1,123
2023-07-14,0,128
2023-07-15,0,119
2023-07-16,1,105
2023-07-17,1,122
2023-07-18,0,131
2023-07-19,1,119
2023-07-20,1,119
2023-07-21,0,110
2023-07-22,4,105
2023-07-23,2,112
2023-07-24,5,131
2023-07-25,1,119
2023-07-26,0,125
2023-07-27,2,126
2023-07-28,2,121
2023-07-29,1,118
2023-07-30,6,110
2023-07-31,2,138
2023-08-01,5,134
2023-08-02,4,122
2023-08-03,3,145
2023-08-04,4,137
2023-08-05,1,117
2023-08-06,2,117
2023-08-07,1,121
2023-08-08,1,131
2023-08-09,4,133
2023-08-10,4,128
2023-08-11,2,122
2023-08-12,5,111
2023-08-13,3,120
2023-08-14,3,144
2023-08-15,4,133
2023-08-16,3,121
2023-08-17,2,135
2023-08-18,2,129
2023-08-19,1,127
2023-08-20,1,120
2023-08-21,0,116
2023-08-22,0,135
2023-08-23,4,131
2023-08-24,2,132
2023-08-25,2,131
2023-08-26,5,130
2023-08-27,6,137
2023-08-28,2,143
2023-08-29,2,152
2023-08-30,4,140
2023-08-31,4,150
2023-09-01,2,132
2023-09-02,5,113
2023-09-03,3,127
2023-09-04,6,140
2023-09-05,2,134
2023-09-06,1,135
2023-09-07,1,139
2023-09-08,6,126
2023-09-09,1,117
2023-09-10,3,120
2023-09-11,0,137
2023-09-12,2,136
2023-09-13,1,138
2023-09-14,0,141
2023-09-15,3,140
2023-09-16,2,132
2023-09-17,3,113
2023-09-18,2,134
2023-09-19,3,135
2023-09-20,2,143
2023-09-21,2,140
2023-09-22,2,131
2023-09-23,3,133
2023-09-24,1,128
2023-09-25,4,121
2023-09-26,1,136
2023-09-27,2,132
2023-09-28,2,135
2023-09-29,3,129
2023-09-30,4,120
2023-10-01,0,127
2023-10-02,2,124
2023-10-03,3,107
2023-10-04,1,124
2023-10-05,1,143
2023-10-06,2,128
2023-10-07,1,141
2023-10-08,1,123
2023-10-09,2,126
2023-10-10,1,129
2023-10-11,1,114
2023-10-12,1,131
2023-10-13,1,138
2023-10-14,1,136
2023-10-15,5,125
2023-10-16,3,145
2023-10-17,2,126
2023-10-18,0,129
2023-10-19,1,126
2023-10-20,0,142
2023-10-21,6,119
2023-10-22,3,119
2023-10-23,4,141
2023-10-24,0,137
2023-10-25,2,113
2023-10-26,2,144
2023-10-27,2,140
2023-10-28,1,142
2023-10-29,0,126
2023-10-30,0,140
2023-10-31,1,143
2023-11-01,1,131
2023-11-02,2,132
2023-11-03,3,142
2023-11-04,2,141
2023-11-05,3,129
2023-11-06,5,128
2023-11-07,1,147
2023-11-08,0,143
2023-11-09,2,145
2023-11-10,4,142
2023-11-11,1,117
2023-11-12,3,133
2023-11-13,5,146
2023-11-14,2,141
2023-11-15,3,154
2023-11-16,4,142
2023-11-17,2,129
2023-11-18,0,142
2023-11-19,1,136
2023-11-20,0,139
2023-11-21,3,142
2023-11-22,5,144
2023-11-23,5,142
2023-11-24,3,137
2023-11-25,2,138
2023-11-26,0,129
2023-11-27,3,149
2023-11-28,2,143
2023-11-29,2,144
2023-11-30,1,148
2023-12-01,1,144
2023-12-02,5,139
2023-12-03,4,136
2023-12-04,3,158
2023-12-05,1,80
2023-12-06,2,75
2023-12-07,0,79
2023-12-08,1,97
2023-12-09,4,75
2023-12-10,2,72
2023-12-11,0,81
2023-12-12,1,81
2023-12-13,1,65
2023-12-14,3,79
2023-12-15,1,77
2023-12-16,2,65
2023-12-17,2,79
2023-12-18,0,60
2023-12-19,1,67
2023-12-20,0,74
2023-12-21,0,77
2023-12-22,0,88
2023-12-23,1,59
2023-12-24,0,57
2023-12-25,1,79
2023-12-26,1,75
2023-12-27,1,78
2023-12-28,2,72
2023-12-29,1,73
2023-12-30,1,73
2023-12-31,4,72
2024-01-01,2,76
2024-01-02,2,81
2024-01-03,1,84
2024-01-04,1,79
2024-01-05,0,76
2024-01-06,0,75
2024-01-07,2,85
2024-01-08,2,90
2024-01-09,0,77
2024-01-10,3,75
2024-01-11,0,84
2024-01-12,0,84
2024-01-13,1,86
2024-01-14,1,74
2024-01-15,2,94
2024-01-16,2,75
2024-01-17,0,86
2024-01-18,0,78
2024-01-19,2,86
2024-01-20,0,70
2024-01-21,0,75
2024-01-22,2,86
2024-01-23,0,121
2024-01-24,1,126
2024-01-25,0,118
2024-01-26,1,126
2024-01-27,2,109
2024-01-28,0,110
2024-01-29,3,124
2024-01-30,0,110
2024-01-31,3,108
2024-02-01,2,112
2024-02-02,0,136
2024-02-03,1,121
2024-02-04,0,98
2024-02-05,0,121
2024-02-06,3,103
2024-02-07,0,99
2024-02-08,2,117
2024-02-09,1,98
2024-02-10,2,109
2024-02-11,3,102
2024-02-12,3,92
2024-02-13,4,104
2024-02-14,1,104
2024-02-15,1,111
2024-02-16,4,114
2024-02-17,1,119
2024-02-18,0,123
2024-02-19,1,123
2024-02-20,0,129
2024-02-21,0,137
2024-02-22,1,107
2024-02-23,2,124
2024-02-24,1,118
2024-02-25,1,101
2024-02-26,1,121
2024-02-27,1,111
2024-02-28,1,133
2024-02-29,2,116
2024-03-01,2,109
2024-03-02,1,115
2024-03-03,0,122
2024-03-04,1,132
2024-03-05,1,122
2024-03-06,1,123
2024-03-07,2,123
2024-03-08,0,119
2024-03-09,0,123
2024-03-10,2,117
2024-03-11,0,125
2024-03-12,2,121
2024-03-13,3,126
2024-03-14,2,126
2024-03-15,1,135
2024-03-16,1,126
2024-03-17,0,111
2024-03-18,2,117
2024-03-19,0,117
2024-03-20,1,96
2024-03-21,0,134
2024-03-22,0,124
2024-03-23,5,114
2024-03-24,2,112
2024-03-25,2,144
2024-03-26,1,118
2024-03-27,2,119
2024-03-28,1,116
2024-03-29,0,112
2024-03-30,1,119
2024-03-31,0,102
2024-04-01,0,120
2024-04-02,1,132
2024-04-03,2,128
2024-04-04,2,110
2024-04-05,2,116
2024-04-06,0,119
2024-04-07,1,125
2024-04-08,1,121
2024-04-09,0,123
2024-04-10,2,112
2024-04-11,2,110
2024-04-12,0,126
2024-04-13,2,111
2024-04-14,2,119
2024-04-15,1,126
2024-04-16,0,125
2024-04-17,0,123
2024-04-18,1,114
2024-04-19,0,129
2024-04-20,1,131
2024-04-21,1,106
2024-04-22,2,126
2024-04-23,0,114
2024-04-24,2,124
2024-04-25,0,117
2024-04-26,3,124
2024-04-27,3,117
2024-04-28,1,118
2024-04-29,2,120
2024-04-30,0,132
2024-05-01,0,108
2024-05-02,1,128
2024-05-03,3,120
2024-05-04,1,109
2024-05-05,0,113
2024-05-06,3,126
2024-05-07,3,111
2024-05-08,0,120
2024-05-09,1,127
2024-05-10,0,117
2024-05-11,0,125
2024-05-12,4,112
2024-05-13,2,123
2024-05-14,0,118
2024-05-15,3,120
2024-05-16,2,123
2024-05-17,1,138
2024-05-18,1,135
2024-05-19,2,117
2024-05-20,1,117
2024-05-21,4,122
2024-05-22,0,120
2024-05-23,3,134
2024-05-24,2,122
2024-05-25,2,130
2024-05-26,1,121
2024-05-27,1,119
2024-05-28,1,127
2024-05-29,2,125
2024-05-30,1,125
2024-05-31,1,134
2024-06-01,2,123
2024-06-02,0,113
2024-06-03,0,129
2024-06-04,1,124
2024-06-05,2,121
2024-06-06,0,116
2024-06-07,0,118
2024-06-08,1,109
2024-06-09,1,132
2024-06-10,1,84
